Regional Weather Roundup
Issued by NWS Cleveland, OH

Home | Current Version | Previous Version | Graphics & Text | Print | Product List | Glossary On
Versions: 1 2 3 4 5 6 7 8 9 10 11 12 13 14 15 16 17 18 19 20 21 22 23 24 25 26 27 28 29 30 31 32 33 34 35 36 37 38 39 40 41 42 43 44 45 46 47 48 49 50
000
ASUS41 KCLE 021010
RWRCLE
OHIO REGIONAL WEATHER ROUNDUP
NATIONAL WEATHER SERVICE WILMINGTON, OH
600 AM EDT TUE SEP 02 2014

NOTE: "FAIR" INDICATES FEW OR NO CLOUDS BELOW 12,000 FEET WITH NO
SIGNIFICANT WEATHER AND/OR OBSTRUCTIONS TO VISIBILITY.

OHZ001>008-015>018-024>027-034-035-043-044-021100-
   NORTHWEST OHIO

CITY           SKY/WX    TMP DP  RH WIND       PRES   REMARKS
DEFIANCE       LGT RAIN  70  66  87 SW8       29.90R
FINDLAY        CLOUDY    71  68  90 SW7       29.91R
TOLEDO EXPRESS CLOUDY    70  65  84 SW8       29.89R
TOLEDO METCALF CLOUDY    70  65  84 SW7       29.90R
LIMA           CLOUDY    73  68  84 SW13      29.95R
$$

OHZ009>014-019>023-028>033-038-089-021100-
   NORTHEAST OHIO

CITY           SKY/WX    TMP DP  RH WIND       PRES   REMARKS
CLE-HOPKINS    MOCLDY    71  68  90 S8        29.93R
CLE-LAKEFRONT  PTCLDY    74  67  78 SW14      29.89R
CUY CO. ARPT   NOT AVBL
LORAIN-ELYRIA  PTCLDY    73  67  81 SW7       29.92S
ASHTABULA      CLEAR     71  69  93 S5        29.92R
AKRON-CANTON   PTCLDY    72  66  83 SW7       29.95R FOG
WOOSTER        PTCLDY    69  67  93 S5        29.96R
MANSFIELD      MOCLDY    71  70  96 SW8       29.96R
YOUNGSTOWN     PTCLDY    71  69  93 SW8       29.94R
$$

OHZ042-051>053-060>062-070>072-077>081-021100-
  SOUTHWEST OHIO

CITY           SKY/WX    TMP DP  RH WIND       PRES   REMARKS
CINC-COVINGTON CLOUDY    76  71  85 S8        29.97R
CINC-LUNKEN    CLOUDY    77  71  82 S6        29.96R
HAMILTON       LGT RAIN  70  68  93 N14G26    29.98R
DAYTON         TSTM      72  68  87 NW24G31   29.98R
WRIGHT-PAT AFB TSTM      73  72  94 W9        29.96R FOG
DAYTON GENERAL TSTM      71  68  90 W23G36    29.97R FOG
WILMINGTON     CLOUDY    72  70  93 S9        29.96S
$$

OHZ036-037-039>041-045>050-054>059-063>069-073>076-082>088-021100-
  CENTRAL AND SOUTHEAST OHIO

CITY           SKY/WX    TMP DP  RH WIND       PRES   REMARKS
COLUMBUS       CLOUDY    75  69  81 S7        29.96R
OSU AIRPORT    MOCLDY    72  69  90 S7        29.96R
BOLTON FIELD   MOCLDY    69  69 100 CALM      29.97S FOG
RICKENBACK AFB MOCLDY    70  65  85 S3        29.96R
NEWARK         PTCLDY    72  69  90 SW3       29.97R
MARION         CLOUDY    69  68  96 SW5       29.94F FOG
LANCASTER      CLOUDY    74  70  87 CALM      29.97S
ZANESVILLE     CLEAR     70  67  90 SW3       29.98R
NEW PHILLY     MOCLDY    72  70  93 CALM      29.97R
$$



USA.gov is the U.S. government's official web portal to all federal, state and local government web resources and services.